STARLINK-30309 (57632 NORAD) Tracking and Keplerian Element Data

This shows tracking and keplerian element data for the satellite.

Feedback or suggestion? Click here.




ElementValue
Catalog57632
NameSTARLINK-30309
Epoch Orbit279
Epoch Day238.91667824
Epoch Year2023
RAAN95.9322
Inclination43.0007
Eccentricity4.67E-05
Argument of Perigee217.7911
Mean Anonmoly204.2166
Mean Motion15.8601639
Decay Rate-0.0089492
L11 57632U 23122A 23238.91667824 -.00894920 00000+0 -38831-2 0 9992
L22 57632 43.0007 95.9322 0000467 217.7911 204.2166 15.86016390 2792



Live tracking and technical data element details for STARLINK-30309 (NORAD 57632). STARLINK-30309 can be tracked NOW for your location showing map with azimuth and elevation plus other details from your city location.







IsCatalogInMostPopularTable: catalog: 57632, numindb: 7
Update: records affected: 1



GetName: 57632 STARLINK-30309

Hit Count: updated at: Tue, 26 Sep 2023 11:36:03 GMT